Regional Weather Roundup
Issued by NWS

Home | Current Version | Previous Version | Graphics & Text | Print | Product List | Glossary Off
Versions: 1 2 3 4 5 6 7 8 9 10 11 12 13 14 15 16 17 18 19 20 21 22 23 24 25 26 27 28 29 30 31 32 33 34 35 36 37 38 39 40 41 42 43 44 45 46 47 48 49 50

000
ASUS43 KTOP 241259
RWRKS

WEATHER ROUNDUP FOR KANSAS
NATIONAL WEATHER SERVICE GOODLAND KS
700 AM CST FRI NOV 24 2017

NOTE:  "FAIR" INDICATES FEW OR NO CLOUDS BELOW 12,000 FEET WITH NO
SIGNIFICANT WEATHER AND/OR OBSTRUCTIONS TO VISIBILITY.

KSZ001>006-013>018-027>032-041>047-241400-
NORTHWEST KANSAS

CITY           SKY/WX    TMP DP  RH WIND       PRES   REMARKS
GOODLAND       CLOUDY    43  31  62 W9        29.76S
HAYS           CLOUDY    46  37  71 W8        29.71S
HILL CITY      PTCLDY    48  37  65 W7        29.70S
RUSSELL        PTCLDY    46  39  76 SW10      29.68F
$$

KSZ061>065-074>080-084>089-241400-
SOUTHWEST KANSAS

CITY           SKY/WX    TMP DP  RH WIND       PRES   REMARKS
DODGE CITY     CLOUDY    41  32  70 SW9       29.75S
GARDEN CITY    CLOUDY    35  30  82 W8        29.75S
GREAT BEND     CLOUDY    41  36  82 SW7       29.72S
LIBERAL        CLOUDY    36  31  82 W9        29.77F
$$

KSZ066>073-081>083-090>101-241400-
SOUTHEAST KANSAS

CITY           SKY/WX    TMP DP  RH WIND       PRES   REMARKS
CHANUTE        CLOUDY    46  32  58 S12       29.82S
COFFEYVILLE    PTCLDY    44  33  65 S3        29.84S
HUTCHINSON     PTCLDY    39  35  86 CALM      29.73S
MEDICINE LODGE   N/A     44  35  70 S6        29.75F
NEWTON         PTCLDY    50  35  56 S15       29.74F
PARSONS        CLOUDY    45  32  60 S6        29.84S
WICHITA INTL   MOCLDY    43  37  79 S9        29.75F
WICHITA JABRA  CLEAR     48  36  63 S10       29.76S
WICHITA MCCONL CLEAR     45  35  67 SW9       29.76F
WINFIELD       CLEAR     45  36  70 S7        29.79F
$$

KSZ007>012-019>026-033>040-048>060-102>105-241400-
NORTHEAST KANSAS

CITY           SKY/WX    TMP DP  RH WIND       PRES   REMARKS
CONCORDIA      PTCLDY    52  39  61 SW13      29.65S
EMPORIA        CLOUDY    46  34  62 S10       29.74F
LAWRENCE       CLEAR     47  35  63 SE10      29.73F
MANHATTAN      PTCLDY    53  37  54 SW13      29.68F
OLATHE IND     CLEAR     44  34  67 S12       29.75F
OLATHE EXE     CLEAR     47  33  58 S12       29.75S
SALINA         PTCLDY    47  38  71 S7        29.70S
TOPEKA BILLARD CLEAR     51  36  56 SW7       29.71F
TOPEKA FORBES  CLEAR     51  36  56 S14       29.71F
$$



USA.gov is the U.S. government's official web portal to all federal, state and local government web resources and services.